Kuressaare current weather conditions

sailwx.info

Wind from 350 at 9 knots

Air temperature 3.0° C
Visibility: greater than 5.4 NM
Dewpoint -4.0° C

Last reported at 2017-Mar-28 15:50 UTC.
Time now 2017-Mar-28 17:43 UTC

Location: N 58°14' E 022°31'.
View on Google Maps.

See reports from other nearby stations

  
Tides and Currents Weather Stations Pressure Air Temp Water Temp Dewpoint Dewpoint Depression Visibility Wind Speed Wind Dir Waves Ship Positions
date/time (UTC)wind fromknots sea level pressurealtimeterstation pressurevisibilityair tempwater tempwave heightnotes
2017-Mar-28 15:50 350 9 5.4 3.0
2017-Mar-28 14:50 310 12 5.4 4.0
2017-Mar-28 13:50 340 12 5.4 4.0
2017-Mar-28 12:50 330 11 5.4 5.0
2017-Mar-28 11:50 340 11 5.4 5.0
2017-Mar-28 10:50 330 12 gusting 21 5.4 5.0
2017-Mar-28 09:50 330 12 5.4 5.0
2017-Mar-28 08:50 350 14 5.4 4.0
2017-Mar-28 07:50 340 13 5.4 4.0
2017-Mar-28 06:50 350 13 5.4 4.0
2017-Mar-28 05:50 340 9 5.4 3.0
2017-Mar-28 04:50 340 9 5.4 2.0
2017-Mar-28 03:50 330 7 5.4 2.0
2017-Mar-28 02:50 330 8 5.4 3.0
2017-Mar-28 01:50 340 9 5.4 3.0
2017-Mar-28 00:50 340 11 5.4 3.0
2017-Mar-27 23:50 350 9 5.4 4.0
2017-Mar-27 22:50 350 11 5.4 4.0
2017-Mar-27 21:50 350 13 gusting 24 5.4 6.0
2017-Mar-27 20:50 360 17 5.4 7.0
2017-Mar-27 19:50 340 13 5.4 8.0
2017-Mar-27 18:50 320 9 gusting 20 5.4 8.0
2017-Mar-27 17:50 310 9 5.4 9.0
2017-Mar-27 16:50 280 13 5.4 8.0
2017-Mar-27 15:50 260 9 5.4 8.0
2017-Mar-27 14:50 250 12 gusting 21 5.4 7.0
2017-Mar-27 13:50 250 12 5.4 8.0
2017-Mar-27 12:50 270 11 gusting 21 5.4 9.0
2017-Mar-27 11:50 270 11 5.4 9.0
2017-Mar-27 10:50 280 13 5.4 8.0
2017-Mar-27 09:50 280 12 5.4 9.0
2017-Mar-27 08:50 310 8 5.4 8.0
2017-Mar-27 07:50 320 7 5.4 7.0
2017-Mar-27 06:50 300 6 5.4 5.0
2017-Mar-27 05:50 310 6 5.4 4.0
2017-Mar-27 04:50 310 6 5.4 2.0
2017-Mar-27 03:50 310 6 5.4 2.0
2017-Mar-27 02:50 320 6 5.4 3.0
2017-Mar-27 01:50 330 6 5.4 3.0
2017-Mar-27 00:50 340 9 5.4 4.0
2017-Mar-26 23:50 330 8 5.4 5.0
2017-Mar-26 22:50 340 11 5.4 5.0
2017-Mar-26 21:50 340 12 5.4 6.0
2017-Mar-26 20:50 340 13 5.4 7.0
2017-Mar-26 19:50 340 9 5.4 7.0
2017-Mar-26 18:50 300 6 5.4 6.0
2017-Mar-26 17:50 290 8 5.4 7.0